Weather History for KENL - October, 2011

Change the Weather History Date:

Monday, October 31, 2011

  Actual Average (KSLO) Record (KSLO)
Temperature  
Mean Temperature 50 °F -  
Max Temperature 59 °F 66 °F 85 °F (1968)
Min Temperature 41 °F 45 °F 26 °F (1988)
Degree Days  
Heating Degree Days 15    
Moisture  
Dew Point 31 °F    
Average Humidity 53    
Maximum Humidity 76    
Minimum Humidity 27    
Precipitation  
Precipitation 0.00 in - - ()
Sea Level Pressure  
Sea Level Pressure 30.09 in    
Wind  
Wind Speed 7 mph (WSW)    
Max Wind Speed 17 mph    
Max Gust Speed 23 mph    
Visibility 10 miles    
Events      
Averages and records for this station are not official NWS values.
T = Trace of Precipitation, MM = Missing Value Source: NWS Daily Summary

Daily Weather History Graph

Daily Weather History Graph

Search for Another Location

Airport or City:

Trip Planner

Search our weather history database for the weather conditions in past years. The results will help you decide how hot, cold, wet, or windy it might be!

Date:

Astronomy

Oct. 31, 2011 Rise Set
Actual Time 7:21 AM CDT 5:57 PM CDT
Civil Twilight 6:54 AM CDT 6:25 PM CDT
Nautical Twilight 6:22 AM CDT 6:56 PM CDT
Astronomical Twilight 5:52 AM CDT 7:27 PM CDT
Moon 12:27 PM CDT (10/31) 10:35 PM CDT (10/31)
Length of Visible Light 11h 31m
Length of Day
10h 36m
Waxing Crescent, 30% of the Moon is Illuminated
Oct 31
Waxing Crescent
Nov 2
First Quarter
Nov 10
Full
Nov 18
Last Quarter
Nov 25
New

Hourly Weather History & Observations

Time (CDT) Temp. Windchill Dew Point Humidity Pressure Visibility Wind Dir Wind Speed Gust Speed Precip Events Conditions
12:15 AM 50.0 °F - 41.0 °F 71% 30.05 in 10.0 mi SSW 4.6 mph - N/A   Mostly Cloudy
12:35 AM 50.0 °F - 39.2 °F 66% 30.05 in 10.0 mi WSW 3.5 mph - N/A   Scattered Clouds
12:55 AM 48.2 °F - 37.4 °F 66% 30.05 in 10.0 mi SW 3.5 mph - N/A   Clear
1:15 AM 46.4 °F 42.9 °F 37.4 °F 71% 30.05 in 10.0 mi SW 6.9 mph - N/A   Clear
1:35 AM 46.4 °F 43.5 °F 37.4 °F 71% 30.05 in 10.0 mi SW 5.8 mph - N/A   Clear
1:55 AM 44.6 °F 40.7 °F 37.4 °F 76% 30.05 in 10.0 mi SW 6.9 mph - N/A   Clear
2:15 AM 44.6 °F 40.7 °F 35.6 °F 71% 30.05 in 10.0 mi SW 6.9 mph - N/A   Clear
2:35 AM 44.6 °F 40.7 °F 35.6 °F 71% 30.05 in 10.0 mi SW 6.9 mph - N/A   Clear
2:55 AM 44.6 °F 40.7 °F 35.6 °F 71% 30.06 in 10.0 mi SW 6.9 mph - N/A   Clear
3:15 AM 42.8 °F 38.6 °F 35.6 °F 76% 30.06 in 10.0 mi SW 6.9 mph - N/A   Clear
3:35 AM 42.8 °F 38.6 °F 35.6 °F 76% 30.06 in 10.0 mi SW 6.9 mph - N/A   Clear
3:55 AM 42.8 °F 38.6 °F 33.8 °F 70% 30.05 in 10.0 mi WSW 6.9 mph - N/A   Clear
4:15 AM 42.8 °F 39.3 °F 33.8 °F 70% 30.05 in 10.0 mi SW 5.8 mph - N/A   Clear
4:35 AM 42.8 °F 39.3 °F 33.8 °F 70% 30.05 in 10.0 mi SW 5.8 mph - N/A   Clear
4:55 AM 42.8 °F 39.3 °F 33.8 °F 70% 30.05 in 10.0 mi SSW 5.8 mph - N/A   Clear
5:15 AM 41.0 °F - 33.8 °F 76% 30.05 in 10.0 mi Calm Calm - N/A   Clear
5:35 AM 41.0 °F 39.0 °F 33.8 °F 76% 30.05 in 10.0 mi SSW 3.5 mph - N/A   Clear
5:55 AM 41.0 °F 36.4 °F 32.0 °F 70% 30.05 in 10.0 mi SSW 6.9 mph - N/A   Clear
6:15 AM 41.0 °F 36.4 °F 32.0 °F 70% 30.05 in 10.0 mi SSW 6.9 mph - N/A   Clear
6:35 AM 41.0 °F 36.4 °F 32.0 °F 70% 30.05 in 10.0 mi SSW 6.9 mph - N/A   Clear
6:55 AM 41.0 °F 35.8 °F 32.0 °F 70% 30.05 in 10.0 mi SW 8.1 mph - N/A   Clear
7:15 AM 42.8 °F 38.0 °F 32.0 °F 66% 30.05 in 10.0 mi SW 8.1 mph - N/A   Clear
7:35 AM 42.8 °F 38.6 °F 32.0 °F 66% 30.06 in 10.0 mi WSW 6.9 mph - N/A   Clear
7:55 AM 42.8 °F 38.0 °F 32.0 °F 66% 30.07 in 10.0 mi WSW 8.1 mph - N/A   Clear
8:15 AM 44.6 °F 40.2 °F 32.0 °F 61% 30.08 in 10.0 mi WSW 8.1 mph - N/A   Clear
8:35 AM 44.6 °F 40.7 °F 32.0 °F 61% 30.08 in 10.0 mi WSW 6.9 mph - N/A   Clear
8:55 AM 46.4 °F 42.9 °F 32.0 °F 57% 30.09 in 10.0 mi West 6.9 mph - N/A   Clear
9:15 AM 46.4 °F 41.5 °F 32.0 °F 57% 30.10 in 10.0 mi West 10.4 mph - N/A   Clear
9:35 AM 48.2 °F - 33.8 °F 58% 30.10 in 10.0 mi West 11.5 mph - N/A   Clear
9:55 AM 50.0 °F - 32.0 °F 50% 30.11 in 10.0 mi West 9.2 mph - N/A   Clear
10:15 AM 50.0 °F - 32.0 °F 50% 30.11 in 10.0 mi West 9.2 mph - N/A   Clear
10:35 AM 51.8 °F - 32.0 °F 47% 30.12 in 10.0 mi West 10.4 mph - N/A   Clear
10:55 AM 53.6 °F - 32.0 °F 44% 30.12 in 10.0 mi WNW 9.2 mph 16.1 mph N/A   Clear
11:15 AM 53.6 °F - 30.2 °F 41% 30.13 in 10.0 mi WNW 11.5 mph 17.3 mph N/A   Clear
11:35 AM 55.4 °F - 30.2 °F 38% 30.13 in 10.0 mi WNW 12.7 mph 18.4 mph N/A   Clear
11:55 AM 55.4 °F - 30.2 °F 38% 30.13 in 10.0 mi WNW 11.5 mph - N/A   Clear
12:15 PM 55.4 °F - 30.2 °F 38% 30.13 in 10.0 mi NW 12.7 mph - N/A   Clear
12:35 PM 57.2 °F - 30.2 °F 36% 30.12 in 10.0 mi West 11.5 mph 16.1 mph N/A   Clear
12:55 PM 57.2 °F - 28.4 °F 33% 30.13 in 10.0 mi West 13.8 mph 19.6 mph N/A   Clear
1:15 PM 57.2 °F - 28.4 °F 33% 30.12 in 10.0 mi West 16.1 mph 20.7 mph N/A   Clear
1:35 PM 57.2 °F - 28.4 °F 33% 30.11 in 10.0 mi WNW 13.8 mph 19.6 mph N/A   Clear
1:55 PM 57.2 °F - 26.6 °F 31% 30.11 in 10.0 mi WNW 17.3 mph 23.0 mph N/A   Clear
2:15 PM 57.2 °F - 26.6 °F 31% 30.11 in 10.0 mi West 15.0 mph 20.7 mph N/A   Clear
2:35 PM 57.2 °F - 26.6 °F 31% 30.11 in 10.0 mi West 11.5 mph 18.4 mph N/A   Clear
2:55 PM 59.0 °F - 26.6 °F 29% 30.11 in 10.0 mi West 10.4 mph 18.4 mph N/A   Clear
3:15 PM 59.0 °F - 26.6 °F 29% 30.11 in 10.0 mi West 9.2 mph - N/A   Clear
3:35 PM 59.0 °F - 26.6 °F 29% 30.11 in 10.0 mi West 11.5 mph - N/A   Clear
3:55 PM 59.0 °F - 24.8 °F 27% 30.12 in 10.0 mi WNW 11.5 mph 18.4 mph N/A   Clear
4:15 PM 59.0 °F - 24.8 °F 27% 30.12 in 10.0 mi West 5.8 mph - N/A   Clear
4:35 PM 59.0 °F - 24.8 °F 27% 30.12 in 10.0 mi West 9.2 mph - N/A   Clear
4:55 PM 57.2 °F - 24.8 °F 29% 30.12 in 10.0 mi WNW 8.1 mph - N/A   Clear
5:15 PM 57.2 °F - 26.6 °F 31% 30.12 in 10.0 mi WNW 4.6 mph - N/A   Clear
5:35 PM 55.4 °F - 26.6 °F 33% 30.12 in 10.0 mi WNW 3.5 mph - N/A   Clear
5:55 PM 53.6 °F - 26.6 °F 35% 30.12 in 10.0 mi Calm Calm - N/A   Clear
6:15 PM 53.6 °F - 24.8 °F 33% 30.13 in 10.0 mi Calm Calm - N/A   Clear
6:35 PM 46.4 °F - 30.2 °F 53% 30.13 in 10.0 mi Calm Calm - N/A   Clear
6:55 PM 44.6 °F 43.1 °F 32.0 °F 61% 30.13 in 10.0 mi SE 3.5 mph - N/A   Clear
7:15 PM 42.8 °F - 32.0 °F 66% 30.14 in 10.0 mi Calm Calm - N/A   Clear
7:35 PM 41.0 °F - 32.0 °F 70% 30.15 in 10.0 mi Calm Calm - N/A   Clear
7:55 PM 39.2 °F - 32.0 °F 75% 30.15 in 10.0 mi Calm Calm - N/A   Clear
8:15 PM 39.2 °F - 32.0 °F 75% 30.16 in 10.0 mi Calm Calm - N/A   Clear
8:35 PM 39.2 °F - 33.8 °F 81% 30.16 in 10.0 mi Calm Calm - N/A   Clear
8:55 PM 37.4 °F - 32.0 °F 81% 30.15 in 10.0 mi Calm Calm - N/A   Clear
9:15 PM 37.4 °F - 32.0 °F 81% 30.16 in 10.0 mi Calm Calm - N/A   Clear
9:35 PM 35.6 °F 32.8 °F 32.0 °F 87% 30.16 in 10.0 mi ESE 3.5 mph - N/A   Clear
9:55 PM 35.6 °F 32.8 °F 32.0 °F 87% 30.16 in 10.0 mi East 3.5 mph - N/A   Clear
10:15 PM 35.6 °F 32.8 °F 32.0 °F 87% 30.16 in 10.0 mi ESE 3.5 mph - N/A   Clear
10:35 PM 35.6 °F 32.8 °F 32.0 °F 87% 30.16 in 10.0 mi East 3.5 mph - N/A   Clear
10:55 PM 37.4 °F 33.8 °F 32.0 °F 81% 30.17 in 10.0 mi SSE 4.6 mph - N/A   Clear
11:15 PM 35.6 °F 32.8 °F 32.0 °F 87% 30.16 in 10.0 mi East 3.5 mph - N/A   Clear
11:35 PM 37.4 °F - 32.0 °F 81% 30.16 in 10.0 mi Calm Calm - N/A   Clear
11:55 PM 39.2 °F 37.0 °F 30.2 °F 70% 30.16 in 10.0 mi ESE 3.5 mph - N/A   Clear